This is the latest recevied weather packets stored in our database for station/object KC5DAQ-29. If no packets are shown the sender has not sent any weather packets the latest 1 day(s).
| Time | Temp. | Humidity | Pressure | Rain* | Wind** | Luminosity | Snow |
|---|---|---|---|---|---|---|---|
| 1778005143 | 26.67° C | 100% | 1006.5 hPa | 32.51 mm | 2.24 m/s, 217° | 445 W/m² | - |
| 1778005082 | 26.67° C | 100% | 1006.4 hPa | 32.51 mm | 2.24 m/s, 149° | 445 W/m² | - |
| 1778005023 | 26.67° C | 100% | 1006.5 hPa | 32.51 mm | 3.13 m/s, 213° | 438 W/m² | - |
| 1778004963 | 26.67° C | 100% | 1006.4 hPa | 32.51 mm | 4.02 m/s, 179° | 438 W/m² | - |
| 1778004903 | 26.67° C | 100% | 1006.5 hPa | 32.51 mm | 3.13 m/s, 241° | 438 W/m² | - |
| 1778004841 | 26.67° C | 100% | 1006.5 hPa | 32.51 mm | 2.24 m/s, 162° | 438 W/m² | - |
| 1778004782 | 26.67° C | 100% | 1006.5 hPa | 32.51 mm | 2.24 m/s, 165° | 350 W/m² | - |
| 1778004723 | 26.11° C | 100% | 1006.5 hPa | 32.51 mm | 2.68 m/s, 219° | 350 W/m² | - |
| 1778004663 | 26.11° C | 100% | 1006.6 hPa | 32.51 mm | 2.68 m/s, 149° | 350 W/m² | - |
| 1778004602 | 26.11° C | 100% | 1006.6 hPa | 32.51 mm | 3.13 m/s, 237° | 362 W/m² | - |
| 1778004542 | 26.11° C | 100% | 1006.5 hPa | 0 mm | 3.13 m/s, 231° | 455 W/m² | - |
| 1778004484 | 26.11° C | 100% | 1006.6 hPa | 0 mm | 2.24 m/s, 220° | 455 W/m² | - |
| 1778004425 | 26.11° C | 100% | 1006.6 hPa | 0 mm | 1.79 m/s, 254° | 406 W/m² | - |
| 1778004364 | 26.11° C | 100% | 1006.6 hPa | 0 mm | 2.68 m/s, 217° | 406 W/m² | - |
| 1778004302 | 26.11° C | 100% | 1006.6 hPa | 0 mm | 4.02 m/s, 179° | 461 W/m² | - |
| 1778004243 | 26.11° C | 100% | 1006.6 hPa | 0 mm | 4.02 m/s, 157° | 461 W/m² | - |
| 1778004182 | 26.11° C | 100% | 1006.6 hPa | 0 mm | 1.79 m/s, 200° | 461 W/m² | - |
| 1778004122 | 26.11° C | 100% | 1006.5 hPa | 0 mm | 1.34 m/s, 245° | 413 W/m² | - |
| 1778004061 | 26.11° C | 100% | 1006.5 hPa | 0 mm | 0.89 m/s, 276° | 413 W/m² | - |
| 1778004005 | 26.11° C | 100% | 1006.5 hPa | 0 mm | 1.34 m/s, 237° | 413 W/m² | - |
| 1778003942 | 26.11° C | 100% | 1006.6 hPa | 0 mm | 1.79 m/s, 214° | 413 W/m² | - |
| 1778003882 | 26.11° C | 100% | 1006.5 hPa | 0 mm | 2.24 m/s, 217° | 413 W/m² | - |
| 1778003823 | 26.11° C | 100% | 1006.5 hPa | 0 mm | 1.79 m/s, 183° | 368 W/m² | - |
| 1778003762 | 25.56° C | 100% | 1006.6 hPa | 0 mm | 1.79 m/s, 238° | 371 W/m² | - |
| 1778003704 | 25.56° C | 100% | 1006.6 hPa | 0 mm | 1.34 m/s, 207° | 371 W/m² | - |
* Rain latest hour (hover to see other rain measurements)
** Current wind speed in m/s (hover to see current wind gust speed)